Weather History for Norfolk, VA

Change the Weather History Date:

Sunday, October 28, 2012

  Actual Average Record
Temperature  
Mean Temperature 61 °F 58 °F  
Max Temperature 63 °F 67 °F 86 °F (1984)
Min Temperature 58 °F 50 °F 31 °F (1976)
Degree Days  
Heating Degree Days 4 8  
Month to date heating degree days 85 123  
Since 1 July heating degree days 89 134  
Cooling Degree Days 0 1  
Month to date cooling degree days 68 53  
Year to date cooling degree days 1850 1618  
Growing Degree Days 10 (Base 50)    
Moisture  
Dew Point 57 °F    
Average Humidity 87    
Maximum Humidity 90    
Minimum Humidity 84    
Precipitation  
Precipitation 1.89 in 0.10 in 2.31 in (1941)
Month to date precipitation 4.62 3.07  
Year to date precipitation 38.57 39.77  
Snow  
Snow 0.00 in 0.00 in 0.00 in (2002)
Month to date snowfall 0.0 0.0  
Since 1 July snowfall 0.0 0.0  
Snow Depth 0.00 in    
Sea Level Pressure  
Sea Level Pressure 29.51 in    
Wind  
Wind Speed 30 mph (NNE)    
Max Wind Speed 43 mph    
Max Gust Speed 52 mph    
Visibility 4 miles    
Events Rain    
T = Trace of Precipitation, MM = Missing Value Source: NWS Daily Summary

Daily Weather History Graph

Daily Weather History Graph

Search for Another Location

Airport:

Trip Planner

Search our weather history database for the weather conditions in past years. The results will help you decide how hot, cold, wet, or windy it might be!

Date:

Astronomy

Oct. 28, 2012 Rise Set
Actual Time 7:25 AM EDT 6:11 PM EDT
Civil Twilight 6:58 AM EDT 6:37 PM EDT
Nautical Twilight 6:27 AM EDT 7:08 PM EDT
Astronomical Twilight 5:57 AM EDT 7:38 PM EDT
Moon 5:27 PM EDT (10/28) 6:16 AM EDT (10/28)
Length of Visible Light 11h 39m
Length of Day
10h 46m
Waxing Gibbous, 99% of the Moon is Illuminated
Oct 28
Waxing Gibbous
Oct 29
Full
Nov 6
Last Quarter
Nov 13
New
Nov 20
First Quarter

Hourly Weather History & Observations

Time (EDT) Temp. Dew Point Humidity Pressure Visibility Wind Dir Wind Speed Gust Speed Precip Events Conditions
12:01 AM 62.6 °F 59.0 °F 88% 29.67 in 10.0 mi NNE 26.5 mph 39.1 mph 0.00 in Rain Light Rain
12:10 AM 62.6 °F 59.0 °F 88% 29.68 in 10.0 mi NNE 25.3 mph 33.4 mph 0.00 in Rain Light Rain
12:51 AM 62.1 °F 57.9 °F 86% 29.67 in 10.0 mi NNE 28.8 mph 36.8 mph 0.00 in   Overcast
1:51 AM 63.0 °F 57.9 °F 84% 29.65 in 10.0 mi NNE 28.8 mph 39.1 mph 0.01 in   Overcast
2:51 AM 62.1 °F 57.9 °F 86% 29.63 in 10.0 mi NNE 24.2 mph 33.4 mph N/A   Overcast
3:51 AM 62.1 °F 57.9 °F 86% 29.61 in 10.0 mi NNE 24.2 mph 34.5 mph 0.00 in Rain Light Rain
4:51 AM 61.0 °F 57.9 °F 90% 29.61 in 9.0 mi NNE 24.2 mph 36.8 mph 0.02 in Rain Light Rain
5:13 AM 60.8 °F 57.2 °F 88% 29.59 in 10.0 mi NNE 21.9 mph 33.4 mph 0.00 in   Overcast
5:26 AM 60.8 °F 57.2 °F 88% 29.60 in 10.0 mi NNE 23.0 mph 36.8 mph 0.00 in   Overcast
5:51 AM 61.0 °F 57.0 °F 87% 29.59 in 10.0 mi NNE 24.2 mph 35.7 mph 0.00 in Rain Light Rain
6:30 AM 60.8 °F 57.2 °F 88% 29.58 in 10.0 mi North 23.0 mph 32.2 mph 0.01 in Rain Light Rain
6:51 AM 61.0 °F 57.9 °F 90% 29.58 in 9.0 mi NNE 24.2 mph 34.5 mph 0.02 in Rain Light Rain
7:19 AM 62.6 °F 57.2 °F 82% 29.57 in 7.0 mi NNE 28.8 mph 39.1 mph 0.01 in Rain Light Rain
7:51 AM 62.1 °F 57.9 °F 86% 29.56 in 3.0 mi NE 34.5 mph 41.4 mph 0.05 in Rain Rain
8:02 AM 60.8 °F 57.2 °F 88% 29.57 in 2.0 mi NE 28.8 mph 41.4 mph 0.04 in Rain Heavy Rain
8:26 AM 60.8 °F 57.2 °F 88% 29.57 in 1.5 mi NE 27.6 mph 35.7 mph 0.11 in Rain Rain
8:34 AM 62.6 °F 57.2 °F 82% 29.58 in 3.0 mi NNE 32.2 mph 41.4 mph 0.12 in Rain Light Rain
8:51 AM 62.1 °F 57.9 °F 86% 29.59 in 3.0 mi NNE 28.8 mph 36.8 mph 0.14 in Rain Rain
9:51 AM 62.1 °F 57.9 °F 86% 29.57 in 4.0 mi NE 27.6 mph 41.4 mph 0.04 in Rain Light Rain
10:09 AM 62.6 °F 59.0 °F 88% 29.57 in 2.0 mi NNE 32.2 mph 42.6 mph 0.00 in Rain Light Rain
10:22 AM 62.6 °F 57.2 °F 82% 29.57 in 4.0 mi NNE 33.4 mph 41.4 mph 0.02 in Rain Light Rain
10:51 AM 62.1 °F 57.9 °F 86% 29.55 in 5.0 mi NNE 29.9 mph 36.8 mph 0.02 in Rain Light Rain
11:11 AM 62.6 °F 57.2 °F 82% 29.54 in 2.5 mi NE 28.8 mph 42.6 mph 0.03 in Rain Light Rain
11:19 AM 62.6 °F 57.2 °F 82% 29.55 in 3.0 mi NE 25.3 mph 41.4 mph 0.03 in Rain Light Rain
11:29 AM 62.6 °F 57.2 °F 82% 29.54 in 1.8 mi NNE 31.1 mph 43.7 mph 0.04 in Rain Rain
11:42 AM 62.6 °F 57.2 °F 82% 29.54 in 2.0 mi NNE 34.5 mph 42.6 mph 0.08 in Rain Rain
11:51 AM 62.1 °F 57.9 °F 86% 29.54 in 2.5 mi NNE 34.5 mph 42.6 mph 0.09 in Rain Light Rain
12:10 PM 60.8 °F 57.2 °F 88% 29.52 in 1.8 mi NE 29.9 mph 41.4 mph 0.05 in Rain Rain
12:37 PM 62.6 °F 59.0 °F 88% 29.52 in 2.0 mi NNE 32.2 mph 41.4 mph 0.11 in Rain Rain
12:51 PM 61.0 °F 57.9 °F 90% 29.51 in 2.5 mi NNE 26.5 mph 39.1 mph 0.13 in Rain Rain
1:05 PM 62.6 °F 59.0 °F 88% 29.49 in 3.0 mi NE 33.4 mph 42.6 mph 0.01 in Rain Light Rain
1:51 PM 61.0 °F 57.9 °F 90% 29.46 in 2.5 mi NE 35.7 mph 50.6 mph 0.06 in Rain Light Rain
2:03 PM 60.8 °F 57.2 °F 88% 29.46 in 1.8 mi NE 34.5 mph 51.8 mph 0.02 in Rain Rain
2:46 PM 60.8 °F 57.2 °F 88% 29.47 in 2.5 mi NE 31.1 mph 46.0 mph 0.13 in Rain Rain
2:51 PM 61.0 °F 57.9 °F 90% 29.47 in 2.5 mi NNE 32.2 mph 41.4 mph 0.14 in Rain Rain
3:05 PM 60.8 °F 57.2 °F 88% 29.45 in 1.2 mi NE 32.2 mph 41.4 mph 0.04 in Rain Rain
3:39 PM 60.8 °F 57.2 °F 88% 29.44 in 2.5 mi NE 24.2 mph 38.0 mph 0.13 in Rain Rain
3:51 PM 61.0 °F 57.0 °F 87% 29.44 in 2.0 mi NE 27.6 mph 35.7 mph 0.16 in Rain Rain
4:12 PM 60.8 °F 57.2 °F 88% 29.45 in 4.0 mi NNE 21.9 mph 33.4 mph 0.03 in Rain Light Rain
4:51 PM 62.1 °F 57.9 °F 86% 29.46 in 4.0 mi NNE 26.5 mph 36.8 mph 0.07 in Rain Light Rain
5:32 PM 60.8 °F 57.2 °F 88% 29.44 in 2.0 mi NNE 36.8 mph 47.2 mph 0.02 in Rain Rain
5:40 PM 60.8 °F 57.2 °F 88% 29.44 in 1.8 mi NNE 34.5 mph 50.6 mph 0.03 in Rain Rain
5:51 PM 61.0 °F 57.0 °F 87% 29.43 in 1.5 mi NNE 35.7 mph 49.5 mph 0.05 in Rain Rain
6:07 PM 60.8 °F 57.2 °F 88% 29.42 in 2.5 mi NNE 33.4 mph 47.2 mph 0.04 in Rain Rain
6:15 PM 60.8 °F 57.2 °F 88% 29.42 in 3.0 mi NNE 35.7 mph 50.6 mph 0.08 in Rain Rain
6:51 PM 60.1 °F 57.9 °F 93% 29.42 in 2.5 mi NNE 39.1 mph 49.5 mph 0.14 in Rain Rain
7:09 PM 60.8 °F 57.2 °F 88% 29.43 in 3.0 mi NNE 39.1 mph 49.5 mph 0.02 in Rain Rain
7:51 PM 60.1 °F 57.0 °F 90% 29.42 in 5.0 mi NNE 36.8 mph 46.0 mph 0.08 in Rain Light Rain
8:51 PM 60.1 °F 57.0 °F 90% 29.41 in 4.0 mi NNE 36.8 mph 48.3 mph 0.07 in Rain Rain
9:25 PM 60.8 °F 55.4 °F 82% 29.40 in 1.8 mi NNE 39.1 mph 50.6 mph 0.05 in Rain Heavy Rain
9:38 PM 60.8 °F 55.4 °F 82% 29.42 in 3.0 mi North 31.1 mph 49.5 mph 0.16 in Rain Rain
9:51 PM 59.0 °F 55.9 °F 90% 29.42 in 3.0 mi North 29.9 mph 44.9 mph 0.19 in Rain Rain
9:55 PM 59.0 °F 55.4 °F 88% 29.42 in 2.5 mi North 27.6 mph 40.3 mph 0.02 in Rain Heavy Rain
10:08 PM 59.0 °F 55.4 °F 88% 29.42 in 3.0 mi North 26.5 mph 38.0 mph 0.09 in Rain Heavy Rain
10:14 PM 59.0 °F 55.4 °F 88% 29.42 in 2.5 mi North 26.5 mph 36.8 mph 0.13 in Rain Heavy Rain
10:20 PM 59.0 °F 55.4 °F 88% 29.42 in 1.8 mi North 26.5 mph 39.1 mph 0.17 in Rain Heavy Rain
10:25 PM 57.2 °F 55.4 °F 94% 29.41 in 2.0 mi North 25.3 mph 39.1 mph 0.23 in Rain Heavy Rain
10:35 PM 59.0 °F 55.4 °F 88% 29.40 in 5.0 mi North 26.5 mph 40.3 mph 0.27 in Rain Light Rain
10:44 PM 59.0 °F 55.4 °F 88% 29.40 in 5.0 mi North 23.0 mph 36.8 mph 0.27 in Rain Light Rain
10:51 PM 59.0 °F 55.9 °F 90% 29.40 in 4.0 mi North 24.2 mph 39.1 mph 0.28 in Rain Rain
11:51 PM 59.0 °F 55.9 °F 90% 29.37 in 6.0 mi North 26.5 mph 44.9 mph 0.08 in Rain Light Rain